Weather History for Parkersburg, WV

Change the Weather History Date:

Friday, October 26, 2012

  Actual Average Record
Temperature  
Mean Temperature 67 °F 52 °F  
Max Temperature 79 °F 63 °F 84 °F (2010)
Min Temperature 54 °F 41 °F 25 °F (1962)
Degree Days  
Heating Degree Days 0 13  
Month to date heating degree days 227 248  
Since 1 July heating degree days 328 324  
Cooling Degree Days 2 0  
Month to date cooling degree days 20 13  
Year to date cooling degree days 1180 949  
Growing Degree Days 16 (Base 50)    
Moisture  
Dew Point 51 °F    
Average Humidity 60    
Maximum Humidity 77    
Minimum Humidity 43    
Precipitation  
Precipitation 0.00 in 0.09 in 0.86 in (2010)
Month to date precipitation 0.46 2.36  
Year to date precipitation 33.26 34.23  
Sea Level Pressure  
Sea Level Pressure 30.05 in    
Wind  
Wind Speed 6 mph (SSW)    
Max Wind Speed 16 mph    
Max Gust Speed 24 mph    
Visibility 10 miles    
Events      
T = Trace of Precipitation, MM = Missing Value Source: NWS Daily Summary

Daily Weather History Graph

Daily Weather History Graph

Search for Another Location

Airport:

Trip Planner

Search our weather history database for the weather conditions in past years. The results will help you decide how hot, cold, wet, or windy it might be!

Date:

Astronomy

Oct. 26, 2012 Rise Set
Actual Time 7:47 AM EDT 6:31 PM EDT
Civil Twilight 7:20 AM EDT 6:58 PM EDT
Nautical Twilight 6:48 AM EDT 7:30 PM EDT
Astronomical Twilight 6:17 AM EDT 8:01 PM EDT
Moon 4:45 PM EDT (10/26) 4:43 AM EDT (10/26)
Length of Visible Light 11h 38m
Length of Day
10h 43m
Waxing Gibbous, 91% of the Moon is Illuminated
Oct 26
Waxing Gibbous
Oct 29
Full
Nov 6
Last Quarter
Nov 13
New
Nov 20
First Quarter

Hourly Weather History & Observations

Time (EDT) Temp. Dew Point Humidity Pressure Visibility Wind Dir Wind Speed Gust Speed Precip Events Conditions
12:53 AM 68.0 °F 46.0 °F 45% 30.03 in 10.0 mi South 8.1 mph - N/A   Clear
1:53 AM 66.9 °F 46.9 °F 49% 30.03 in 10.0 mi SSE 5.8 mph - N/A   Clear
2:53 AM 64.9 °F 48.0 °F 54% 30.04 in 10.0 mi SSE 6.9 mph - N/A   Clear
3:53 AM 64.9 °F 48.9 °F 56% 30.04 in 10.0 mi South 6.9 mph - N/A   Clear
4:53 AM 64.0 °F 48.9 °F 58% 30.05 in 10.0 mi South 3.5 mph - N/A   Clear
5:53 AM 59.0 °F 48.9 °F 69% 30.06 in 10.0 mi SSE 3.5 mph - N/A   Clear
6:53 AM 57.0 °F 48.9 °F 74% 30.08 in 10.0 mi SSE 5.8 mph - N/A   Clear
7:53 AM 59.0 °F 50.0 °F 72% 30.09 in 10.0 mi SSE 4.6 mph - N/A   Partly Cloudy
8:53 AM 63.0 °F 51.1 °F 65% 30.10 in 10.0 mi South 5.8 mph - N/A   Mostly Cloudy
9:53 AM 66.0 °F 52.0 °F 60% 30.11 in 10.0 mi South 5.8 mph - N/A   Mostly Cloudy
10:53 AM 71.1 °F 53.1 °F 53% 30.11 in 10.0 mi SSW 5.8 mph - N/A   Mostly Cloudy
11:53 AM 73.0 °F 54.0 °F 51% 30.10 in 10.0 mi Variable 6.9 mph - N/A   Scattered Clouds
12:53 PM 75.0 °F 54.0 °F 48% 30.08 in 10.0 mi WSW 6.9 mph - N/A   Partly Cloudy
1:53 PM 75.9 °F 55.0 °F 48% 30.04 in 10.0 mi SSW 8.1 mph - N/A   Clear
2:53 PM 77.0 °F 54.0 °F 45% 30.02 in 10.0 mi West 8.1 mph - N/A   Mostly Cloudy
3:53 PM 75.9 °F 53.1 °F 45% 30.00 in 10.0 mi SW 6.9 mph - N/A   Partly Cloudy
4:53 PM 75.9 °F 51.1 °F 42% 29.99 in 10.0 mi Calm Calm - N/A   Scattered Clouds
5:53 PM 73.9 °F 51.1 °F 45% 29.99 in 10.0 mi West 4.6 mph - N/A   Overcast
6:53 PM 66.0 °F 52.0 °F 60% 30.04 in 10.0 mi NW 8.1 mph 17.3 mph N/A   Overcast
7:53 PM 59.0 °F 50.0 °F 72% 30.07 in 9.0 mi NW 5.8 mph - N/A   Overcast
8:53 PM 57.0 °F 48.9 °F 74% 30.06 in 9.0 mi NW 6.9 mph - N/A   Overcast
9:53 PM 55.9 °F 48.9 °F 77% 30.06 in 10.0 mi NNW 6.9 mph - N/A   Overcast
10:53 PM 55.0 °F 48.9 °F 80% 30.05 in 10.0 mi North 5.8 mph - N/A   Mostly Cloudy
11:53 PM 55.0 °F 48.9 °F 80% 30.03 in 10.0 mi Variable 5.8 mph - N/A   Overcast